Pagina principale
METAR-TAF:

METAR-TAF

Aeroporti :

Le Luc, Francia

latitudine: 43-23N, longitudine: 006-23E, altezza: 80 m

Osservazione

Il bollettino è stato emesso 28 minuti fa, alle 16:30 UTC
Vento 12 kt da ovest, variando fra sud-ovest e ovest
Temperature 28°C
Umidità 22%
Pressione 1014 hPa
Visibilità 10 km o più

METAR: LFMC 131630Z AUTO 26012KT 220V280 9999 ////// 28/04 Q1014

Ora: 18:58 (16:58 UTC)


TAF: mancante

Osservazioni e previsioni meteorologiche di più di 4000 aeroporti (messaggi METAR e TAF).

Le stazioni disponibili sono rappresentate dai dischi gialli e rossi sulla carta.

Puntare il mouse per vedere il nome della stazione.

Clicca sopra per visualizzare le osservazioni e previsioni meteorologiche.

Per cambiare la mappa : fare clic sui pulsanti verdi con una croce nera per ingrandire, il pulsante verde con un trattino per diminuire, o sulla freccia verde per le mappe adiacenti.


METAR-TAF: